Time,TemperatureF,DewpointF,PressureIn,WindDirection,WindDirectionDegrees,WindSpeedMPH,WindSpeedGustMPH,Humidity,HourlyPrecipIn,Conditions,Clouds,dailyrainin,SoftwareType,DateUTC
2013-05-16 00:01:00,42.6,36.9,29.82,NE,51,0.0,10.0,80,0.00,,BKN001,0.22,VWS V14.00,2013-05-16 06:01:00,
2013-05-16 00:06:00,42.7,36.7,29.82,NE,48,1.0,3.0,79,0.00,,BKN001,0.00,VWS V14.00,2013-05-16 06:06:00,
2013-05-16 00:11:00,42.2,36.2,29.82,ENE,67,1.0,3.0,79,0.00,,BKN001,0.00,VWS V14.00,2013-05-16 06:11:00,
2013-05-16 00:16:00,41.7,36.0,29.82,ENE,58,0.0,3.0,80,0.00,,BKN001,0.00,VWS V14.00,2013-05-16 06:16:00,
2013-05-16 00:21:00,41.4,36.0,29.82,ENE,70,3.0,3.0,81,0.00,,BKN001,0.00,VWS V14.00,2013-05-16 06:21:00,
2013-05-16 00:26:00,41.9,35.9,29.83,ENE,71,4.0,4.0,79,0.00,,BKN001,0.00,VWS V14.00,2013-05-16 06:26:00,
2013-05-16 00:31:00,42.3,35.9,29.83,ENE,64,4.0,4.0,78,0.00,,BKN001,0.00,VWS V14.00,2013-05-16 06:31:00,
2013-05-16 00:36:00,42.7,35.7,29.83,ENE,63,3.0,6.0,76,0.00,,BKN001,0.00,VWS V14.00,2013-05-16 06:36:00,
2013-05-16 00:41:00,42.0,35.7,29.83,West,263,0.0,6.0,78,0.00,,BKN001,0.00,VWS V14.00,2013-05-16 06:41:00,
2013-05-16 00:46:00,40.6,34.9,29.84,SSW,209,1.0,6.0,80,0.00,,BKN001,0.00,VWS V14.00,2013-05-16 06:46:00,
2013-05-16 00:51:00,40.0,34.3,29.83,South,177,2.0,6.0,80,0.00,,BKN001,0.00,VWS V14.00,2013-05-16 06:51:00,
2013-05-16 00:56:00,39.3,34.6,29.83,SW,232,2.0,6.0,83,0.00,,BKN001,0.00,VWS V14.00,2013-05-16 06:56:00,
2013-05-16 01:01:00,38.8,33.5,29.84,SE,135,3.0,6.0,81,0.00,,BKN001,0.00,VWS V14.00,2013-05-16 07:01:00,
2013-05-16 01:06:00,37.9,32.9,29.84,SSE,163,3.0,4.0,82,0.00,,BKN001,0.00,VWS V14.00,2013-05-16 07:06:00,
2013-05-16 01:11:00,38.0,33.3,29.84,SSE,166,1.0,4.0,83,0.00,,BKN001,0.00,VWS V14.00,2013-05-16 07:11:00,
2013-05-16 01:16:00,38.0,33.3,29.83,WSW,240,2.0,4.0,83,0.00,,BKN001,0.00,VWS V14.00,2013-05-16 07:16:00,
2013-05-16 01:21:00,37.4,32.7,29.83,SSW,212,2.0,4.0,83,0.00,,BKN001,0.00,VWS V14.00,2013-05-16 07:21:00,
2013-05-16 01:26:00,37.4,32.7,29.84,SSE,167,3.0,4.0,83,0.00,,BKN001,0.00,VWS V14.00,2013-05-16 07:26:00,
2013-05-16 01:31:00,37.5,32.8,29.83,SSE,157,3.0,5.0,83,0.00,,BKN001,0.00,VWS V14.00,2013-05-16 07:31:00,
2013-05-16 01:36:00,37.2,32.5,29.83,SSE,160,3.0,3.0,83,0.00,,BKN001,0.00,VWS V14.00,2013-05-16 07:36:00,
2013-05-16 01:41:00,36.9,32.5,29.84,SSW,212,4.0,5.0,84,0.00,,BKN001,0.00,VWS V14.00,2013-05-16 07:41:00,
2013-05-16 01:46:00,36.5,31.8,29.83,South,180,2.0,6.0,83,0.00,,BKN001,0.00,VWS V14.00,2013-05-16 07:46:00,
2013-05-16 01:51:00,36.0,31.6,29.84,SW,222,1.0,6.0,84,0.00,,BKN001,0.00,VWS V14.00,2013-05-16 07:51:00,
2013-05-16 01:56:00,35.5,31.5,29.84,SSW,210,2.0,6.0,85,0.00,,BKN001,0.00,VWS V14.00,2013-05-16 07:56:00,
2013-05-16 02:01:00,35.1,31.3,29.84,SW,215,2.0,6.0,86,0.00,,BKN001,0.00,VWS V14.00,2013-05-16 08:01:00,
2013-05-16 02:06:00,34.7,31.2,29.84,SSW,212,3.0,5.0,87,0.00,,BKN001,0.00,VWS V14.00,2013-05-16 08:06:00,
2013-05-16 02:11:00,34.7,31.5,29.84,SW,225,3.0,5.0,88,0.00,,BKN001,0.00,VWS V14.00,2013-05-16 08:11:00,
2013-05-16 02:16:00,34.6,31.4,29.84,SW,215,4.0,5.0,88,0.00,,BKN001,0.00,VWS V14.00,2013-05-16 08:16:00,
2013-05-16 02:21:00,34.4,31.2,29.84,SW,228,4.0,5.0,88,0.00,,BKN001,0.00,VWS V14.00,2013-05-16 08:21:00,
2013-05-16 02:26:00,34.0,31.1,29.84,SSW,212,6.0,7.0,89,0.00,,BKN001,0.00,VWS V14.00,2013-05-16 08:26:00,
2013-05-16 02:31:00,34.5,31.3,29.84,SW,231,6.0,8.0,88,0.00,,BKN001,0.00,VWS V14.00,2013-05-16 08:31:00,
2013-05-16 02:36:00,34.7,31.5,29.84,South,178,6.0,7.0,88,0.00,,BKN001,0.00,VWS V14.00,2013-05-16 08:36:00,
2013-05-16 02:41:00,35.0,31.5,29.84,WSW,249,3.0,7.0,87,0.00,,BKN001,0.00,VWS V14.00,2013-05-16 08:41:00,
2013-05-16 02:46:00,34.3,30.8,29.84,WSW,245,4.0,7.0,87,0.00,,BKN001,0.00,VWS V14.00,2013-05-16 08:46:00,
2013-05-16 02:51:00,33.8,30.6,29.84,SW,230,6.0,7.0,88,0.00,,BKN001,0.00,VWS V14.00,2013-05-16 08:51:00,
2013-05-16 02:56:00,33.6,30.7,29.84,SW,231,4.0,7.0,89,0.00,,BKN001,0.00,VWS V14.00,2013-05-16 08:56:00,
2013-05-16 03:01:00,33.5,30.6,29.85,SSW,198,3.0,7.0,89,0.00,,BKN001,0.00,VWS V14.00,2013-05-16 09:01:00,
2013-05-16 03:06:00,33.5,30.6,29.85,SSW,210,3.0,5.0,89,0.00,,BKN001,0.00,VWS V14.00,2013-05-16 09:06:00,
2013-05-16 03:11:00,33.5,30.3,29.85,SW,230,1.0,5.0,88,0.00,,BKN001,0.00,VWS V14.00,2013-05-16 09:11:00,
2013-05-16 03:16:00,33.1,29.9,29.85,SW,232,3.0,5.0,88,0.00,,BKN001,0.00,VWS V14.00,2013-05-16 09:16:00,
2013-05-16 03:21:00,33.1,29.9,29.86,SW,215,5.0,6.0,88,0.00,,BKN001,0.00,VWS V14.00,2013-05-16 09:21:00,
2013-05-16 03:26:00,33.1,29.9,29.86,WSW,249,2.0,7.0,88,0.00,,BKN001,0.00,VWS V14.00,2013-05-16 09:26:00,
2013-05-16 03:31:00,32.9,29.7,29.86,SSW,210,2.0,7.0,88,0.00,,BKN001,0.00,VWS V14.00,2013-05-16 09:31:00,
2013-05-16 03:36:00,32.9,29.7,29.86,SSW,195,2.0,2.0,88,0.00,,BKN001,0.00,VWS V14.00,2013-05-16 09:36:00,
2013-05-16 03:41:00,32.6,29.5,29.86,SSW,212,1.0,3.0,88,0.00,,BKN001,0.00,VWS V14.00,2013-05-16 09:41:00,
2013-05-16 03:46:00,32.5,29.6,29.86,South,170,4.0,4.0,89,0.00,,BKN001,0.00,VWS V14.00,2013-05-16 09:46:00,
2013-05-16 03:51:00,32.3,29.1,29.86,South,177,1.0,4.0,88,0.00,,BKN001,0.00,VWS V14.00,2013-05-16 09:51:00,
2013-05-16 03:56:00,32.2,29.3,29.87,WSW,252,1.0,4.0,89,0.00,,BKN001,0.00,VWS V14.00,2013-05-16 09:56:00,
2013-05-16 04:01:00,32.0,29.1,29.87,SSW,194,3.0,5.0,89,0.00,,BKN001,0.00,VWS V14.00,2013-05-16 10:01:00,
2013-05-16 04:06:00,31.7,28.8,29.87,SW,219,2.0,3.0,89,0.00,,BKN001,0.00,VWS V14.00,2013-05-16 10:06:00,
2013-05-16 04:11:00,31.7,28.8,29.87,South,173,5.0,6.0,89,0.00,,BKN001,0.00,VWS V14.00,2013-05-16 10:11:00,
2013-05-16 04:16:00,32.1,29.2,29.87,SSE,162,3.0,6.0,89,0.00,,BKN001,0.00,VWS V14.00,2013-05-16 10:16:00,
2013-05-16 04:21:00,32.0,29.1,29.87,SE,128,2.0,6.0,89,0.00,,BKN001,0.00,VWS V14.00,2013-05-16 10:21:00,
2013-05-16 04:26:00,31.8,28.9,29.87,ESE,108,0.0,6.0,89,0.00,,BKN001,0.00,VWS V14.00,2013-05-16 10:26:00,
2013-05-16 04:31:00,31.7,29.1,29.87,SW,219,1.0,6.0,90,0.00,,BKN001,0.00,VWS V14.00,2013-05-16 10:31:00,
2013-05-16 04:36:00,31.8,28.9,29.87,SW,222,3.0,4.0,89,0.00,,BKN001,0.00,VWS V14.00,2013-05-16 10:36:00,
2013-05-16 04:41:00,31.6,28.7,29.87,WSW,246,4.0,6.0,89,0.00,,BKN001,0.00,VWS V14.00,2013-05-16 10:41:00,
2013-05-16 04:46:00,31.4,28.8,29.87,WSW,256,0.0,6.0,90,0.00,,BKN001,0.00,VWS V14.00,2013-05-16 10:46:00,
2013-05-16 04:51:00,31.2,28.3,29.88,West,270,0.0,6.0,89,0.00,,BKN001,0.00,VWS V14.00,2013-05-16 10:51:00,
2013-05-16 04:56:00,30.8,28.2,29.88,SSW,195,1.0,6.0,90,0.00,,BKN001,0.00,VWS V14.00,2013-05-16 10:56:00,
2013-05-16 05:01:00,30.6,28.0,29.88,SSE,149,2.0,6.0,90,0.00,,BKN001,0.00,VWS V14.00,2013-05-16 11:01:00,
2013-05-16 05:06:00,30.6,28.3,29.88,SW,225,3.0,3.0,91,0.00,,BKN001,0.00,VWS V14.00,2013-05-16 11:06:00,
2013-05-16 05:11:00,30.7,28.1,29.88,SW,235,2.0,3.0,90,0.00,,BKN001,0.00,VWS V14.00,2013-05-16 11:11:00,
2013-05-16 05:16:00,30.5,27.9,29.88,SSW,212,2.0,5.0,90,0.00,,BKN001,0.00,VWS V14.00,2013-05-16 11:16:00,
2013-05-16 05:21:00,30.4,28.1,29.89,SSW,194,2.0,5.0,91,0.00,,BKN001,0.00,VWS V14.00,2013-05-16 11:21:00,
2013-05-16 05:26:00,30.3,28.0,29.89,SW,218,5.0,5.0,91,0.00,,BKN001,0.00,VWS V14.00,2013-05-16 11:26:00,
2013-05-16 05:31:00,30.2,27.9,29.89,SSW,205,3.0,6.0,91,0.00,,BKN001,0.00,VWS V14.00,2013-05-16 11:31:00,
2013-05-16 05:36:00,29.7,27.1,29.89,South,183,3.0,5.0,90,0.00,,BKN001,0.00,VWS V14.00,2013-05-16 11:36:00,
2013-05-16 05:41:00,29.4,27.1,29.89,SW,231,3.0,7.0,91,0.00,,BKN001,0.00,VWS V14.00,2013-05-16 11:41:00,
2013-05-16 05:46:00,29.5,27.5,29.90,SW,236,3.0,7.0,92,0.00,,BKN001,0.00,VWS V14.00,2013-05-16 11:46:00,
2013-05-16 05:51:00,29.4,27.1,29.90,WSW,258,5.0,7.0,91,0.00,,BKN001,0.00,VWS V14.00,2013-05-16 11:51:00,
2013-05-16 05:56:00,29.7,27.7,29.91,SW,225,3.0,7.0,92,0.00,,BKN001,0.00,VWS V14.00,2013-05-16 11:56:00,
2013-05-16 06:01:00,29.7,27.1,29.90,South,177,5.0,7.0,90,0.00,,BKN001,0.00,VWS V14.00,2013-05-16 12:01:00,
2013-05-16 06:06:00,29.7,27.4,29.91,WSW,253,3.0,6.0,91,0.00,,BKN001,0.00,VWS V14.00,2013-05-16 12:06:00,
2013-05-16 06:11:00,29.7,27.1,29.92,WSW,248,5.0,6.0,90,0.00,,BKN001,0.00,VWS V14.00,2013-05-16 12:11:00,
2013-05-16 06:16:00,29.8,27.2,29.92,SW,228,4.0,6.0,90,0.00,,BKN001,0.00,VWS V14.00,2013-05-16 12:16:00,
2013-05-16 06:21:00,29.9,27.3,29.92,SW,228,4.0,6.0,90,0.00,,BKN001,0.00,VWS V14.00,2013-05-16 12:21:00,
2013-05-16 06:26:00,30.0,27.2,29.92,West,278,0.0,6.0,89,0.00,,BKN001,0.00,VWS V14.00,2013-05-16 12:26:00,
2013-05-16 06:31:00,29.8,27.0,29.92,West,278,0.0,6.0,89,0.00,,BKN001,0.00,VWS V14.00,2013-05-16 12:31:00,
2013-05-16 06:36:00,29.7,26.9,29.93,West,278,1.0,1.0,89,0.00,,BKN001,0.00,VWS V14.00,2013-05-16 12:36:00,
2013-05-16 06:41:00,29.6,27.0,29.93,WSW,245,2.0,2.0,90,0.00,,BKN001,0.00,VWS V14.00,2013-05-16 12:41:00,
2013-05-16 06:46:00,29.6,27.0,29.93,SW,229,3.0,3.0,90,0.00,,BKN001,0.00,VWS V14.00,2013-05-16 12:46:00,
2013-05-16 06:50:00,29.6,27.0,29.93,SW,221,2.0,4.0,90,0.00,,BKN001,0.00,VWS V14.00,2013-05-16 12:50:00,
2013-05-16 06:55:00,29.5,26.9,29.93,SE,136,1.0,4.0,90,0.00,,BKN001,0.00,VWS V14.00,2013-05-16 12:55:00,
2013-05-16 07:00:00,29.7,27.1,29.93,ESE,110,0.0,4.0,90,0.00,,BKN001,0.00,VWS V14.00,2013-05-16 13:00:00,
2013-05-16 07:05:00,30.8,28.2,29.93,ESE,110,0.0,0.0,90,0.00,,BKN001,0.00,VWS V14.00,2013-05-16 13:05:00,
2013-05-16 07:10:00,32.0,29.1,29.93,ESE,110,0.0,1.0,89,0.00,,BKN001,0.00,VWS V14.00,2013-05-16 13:10:00,
2013-05-16 07:15:00,33.1,29.4,29.93,SSE,167,0.0,1.0,86,0.00,,BKN001,0.00,VWS V14.00,2013-05-16 13:15:00,
2013-05-16 07:20:00,34.0,30.0,29.93,SSE,166,1.0,2.0,85,0.00,,BKN001,0.00,VWS V14.00,2013-05-16 13:20:00,
2013-05-16 07:25:00,34.5,30.2,29.93,SW,228,2.0,2.0,84,0.00,,BKN001,0.00,VWS V14.00,2013-05-16 13:25:00,
2013-05-16 07:30:00,34.4,29.8,29.93,SW,225,1.0,3.0,83,0.00,,BKN001,0.00,VWS V14.00,2013-05-16 13:30:00,
2013-05-16 07:35:00,34.0,29.1,29.93,SW,215,4.0,4.0,82,0.00,,BKN001,0.00,VWS V14.00,2013-05-16 13:35:00,
2013-05-16 07:40:00,33.3,28.4,29.93,WSW,238,4.0,5.0,82,0.00,,BKN001,0.00,VWS V14.00,2013-05-16 13:40:00,
2013-05-16 07:45:00,33.8,29.8,29.93,SSW,207,2.0,5.0,85,0.00,,BKN001,0.00,VWS V14.00,2013-05-16 13:45:00,
2013-05-16 07:50:00,34.9,30.9,29.93,SW,218,1.0,5.0,85,0.00,,BKN001,0.00,VWS V14.00,2013-05-16 13:50:00,
2013-05-16 07:55:00,35.8,31.1,29.93,SSW,192,2.0,5.0,83,0.00,,BKN001,0.00,VWS V14.00,2013-05-16 13:55:00,
2013-05-16 08:00:00,36.7,31.4,29.93,SSE,160,2.0,5.0,81,0.00,,BKN001,0.00,VWS V14.00,2013-05-16 14:00:00,
2013-05-16 08:05:00,37.1,31.5,29.93,SSW,194,3.0,4.0,80,0.00,,BKN001,0.00,VWS V14.00,2013-05-16 14:05:00,
2013-05-16 08:10:00,37.7,32.1,29.92,SSE,150,2.0,4.0,80,0.00,,BKN001,0.00,VWS V14.00,2013-05-16 14:10:00,
2013-05-16 08:15:00,38.0,31.4,29.92,WSW,243,2.0,5.0,77,0.00,,BKN001,0.00,VWS V14.00,2013-05-16 14:15:00,
2013-05-16 08:20:00,38.3,31.7,29.92,SSW,198,4.0,5.0,77,0.00,,BKN001,0.00,VWS V14.00,2013-05-16 14:20:00,
2013-05-16 08:25:00,38.9,32.6,29.92,SSW,204,3.0,5.0,78,0.00,,BKN001,0.00,VWS V14.00,2013-05-16 14:25:00,
2013-05-16 08:30:00,39.5,32.6,29.92,SSW,212,4.0,6.0,76,0.00,,BKN001,0.00,VWS V14.00,2013-05-16 14:30:00,
2013-05-16 08:35:00,40.4,33.1,29.92,SW,218,4.0,4.0,75,0.00,,BKN001,0.00,VWS V14.00,2013-05-16 14:35:00,
2013-05-16 08:40:00,41.0,32.7,29.92,SW,235,3.0,5.0,72,0.00,,BKN001,0.00,VWS V14.00,2013-05-16 14:40:00,
2013-05-16 08:45:00,41.7,32.7,29.91,South,174,3.0,5.0,70,0.00,,BKN001,0.00,VWS V14.00,2013-05-16 14:45:00,
2013-05-16 08:50:00,42.7,32.5,29.91,South,176,3.0,5.0,67,0.00,,BKN001,0.00,VWS V14.00,2013-05-16 14:50:00,
2013-05-16 08:55:00,43.3,32.7,29.91,SSW,194,3.0,6.0,66,0.00,,BKN001,0.00,VWS V14.00,2013-05-16 14:55:00,
2013-05-16 09:00:00,43.9,32.9,29.91,SSE,166,5.0,6.0,65,0.00,,BKN001,0.00,VWS V14.00,2013-05-16 15:00:00,
2013-05-16 09:05:00,44.5,33.1,29.90,SW,225,3.0,5.0,64,0.00,,BKN001,0.00,VWS V14.00,2013-05-16 15:05:00,
2013-05-16 09:10:00,45.2,34.2,29.90,South,169,5.0,5.0,65,0.00,,BKN001,0.00,VWS V14.00,2013-05-16 15:10:00,
2013-05-16 09:15:00,45.4,33.2,29.90,SSW,192,3.0,6.0,62,0.00,,BKN001,0.00,VWS V14.00,2013-05-16 15:15:00,
2013-05-16 09:20:00,46.1,33.4,29.89,SSW,212,5.0,6.0,61,0.00,,BKN001,0.00,VWS V14.00,2013-05-16 15:20:00,
2013-05-16 09:25:00,46.7,33.6,29.89,South,172,3.0,6.0,60,0.00,,BKN001,0.00,VWS V14.00,2013-05-16 15:25:00,
2013-05-16 09:30:00,47.4,34.6,29.88,South,175,3.0,6.0,61,0.00,,BKN001,0.00,VWS V14.00,2013-05-16 15:30:00,
2013-05-16 09:35:00,48.0,34.8,29.88,SW,215,6.0,7.0,60,0.00,,BKN001,0.00,VWS V14.00,2013-05-16 15:35:00,
2013-05-16 09:40:00,48.5,34.0,29.87,WSW,248,4.0,7.0,57,0.00,,BKN001,0.00,VWS V14.00,2013-05-16 15:40:00,
2013-05-16 09:45:00,49.0,34.0,29.87,SW,219,6.0,7.0,56,0.00,,BKN001,0.00,VWS V14.00,2013-05-16 15:45:00,
2013-05-16 09:50:00,49.9,35.3,29.87,WSW,240,2.0,7.0,57,0.00,,BKN001,0.00,VWS V14.00,2013-05-16 15:50:00,
2013-05-16 09:55:00,50.5,34.0,29.86,WSW,240,4.0,7.0,53,0.00,,BKN001,0.00,VWS V14.00,2013-05-16 15:55:00,
2013-05-16 10:00:00,51.4,33.4,29.86,SSW,195,3.0,7.0,50,0.00,,BKN001,0.00,VWS V14.00,2013-05-16 16:00:00,
2013-05-16 10:06:00,52.1,33.5,29.86,SW,226,5.0,6.0,49,0.00,,BKN001,0.00,VWS V14.00,2013-05-16 16:06:00,
2013-05-16 10:11:00,53.0,36.8,29.85,SSW,212,2.0,5.0,54,0.00,,BKN001,0.00,VWS V14.00,2013-05-16 16:11:00,
2013-05-16 10:16:00,53.7,35.5,29.85,SSW,203,6.0,7.0,50,0.00,,BKN001,0.00,VWS V14.00,2013-05-16 16:16:00,
2013-05-16 10:21:00,54.7,35.4,29.85,SSW,210,2.0,7.0,48,0.00,,BKN001,0.00,VWS V14.00,2013-05-16 16:21:00,
2013-05-16 10:26:00,56.0,34.4,29.84,ENE,67,1.0,7.0,44,0.00,,BKN001,0.00,VWS V14.00,2013-05-16 16:26:00,
2013-05-16 10:31:00,57.5,27.9,29.84,East,98,3.0,7.0,32,0.00,,BKN001,0.00,VWS V14.00,2013-05-16 16:31:00,
2013-05-16 10:36:00,59.0,30.0,29.84,East,97,4.0,7.0,33,0.00,,BKN001,0.00,VWS V14.00,2013-05-16 16:36:00,
2013-05-16 10:41:00,59.5,25.5,29.83,West,264,0.0,7.0,27,0.00,,BKN001,0.00,VWS V14.00,2013-05-16 16:41:00,
2013-05-16 10:46:00,60.0,25.0,29.83,East,91,4.0,7.0,26,0.00,,BKN001,0.00,VWS V14.00,2013-05-16 16:46:00,
2013-05-16 10:51:00,60.3,26.2,29.83,East,93,7.0,9.0,27,0.00,,BKN001,0.00,VWS V14.00,2013-05-16 16:51:00,
2013-05-16 10:56:00,60.5,26.4,29.83,East,98,8.0,9.0,27,0.00,,BKN001,0.00,VWS V14.00,2013-05-16 16:56:00,
2013-05-16 11:01:00,60.7,25.6,29.83,SSW,195,4.0,11.0,26,0.00,,BKN001,0.00,VWS V14.00,2013-05-16 17:01:00,
2013-05-16 11:06:00,60.9,26.7,29.82,SE,145,8.0,11.0,27,0.00,,BKN001,0.00,VWS V14.00,2013-05-16 17:06:00,
2013-05-16 11:11:00,61.6,27.3,29.82,SW,235,4.0,11.0,27,0.00,,BKN001,0.00,VWS V14.00,2013-05-16 17:11:00,
2013-05-16 11:16:00,61.7,24.6,29.82,NE,39,3.0,16.0,24,0.00,,BKN001,0.00,VWS V14.00,2013-05-16 17:16:00,
2013-05-16 11:21:00,61.5,24.4,29.82,East,96,4.0,16.0,24,0.00,,BKN001,0.00,VWS V14.00,2013-05-16 17:21:00,
2013-05-16 11:26:00,62.0,26.8,29.82,SE,136,6.0,16.0,26,0.00,,BKN001,0.00,VWS V14.00,2013-05-16 17:26:00,
2013-05-16 11:31:00,62.5,27.2,29.81,South,169,5.0,16.0,26,0.00,,BKN001,0.00,VWS V14.00,2013-05-16 17:31:00,
2013-05-16 11:36:00,62.7,26.4,29.81,SSE,159,1.0,10.0,25,0.00,,BKN001,0.00,VWS V14.00,2013-05-16 17:36:00,
2013-05-16 11:41:00,62.8,26.5,29.81,SE,139,5.0,10.0,25,0.00,,BKN001,0.00,VWS V14.00,2013-05-16 17:41:00,
2013-05-16 11:46:00,63.9,29.3,29.81,SSE,162,5.0,14.0,27,0.00,,BKN001,0.00,VWS V14.00,2013-05-16 17:46:00,
2013-05-16 11:51:00,64.0,27.5,29.81,SE,136,11.0,14.0,25,0.00,,BKN001,0.00,VWS V14.00,2013-05-16 17:51:00,
2013-05-16 11:56:00,63.8,25.3,29.81,South,187,4.0,14.0,23,0.00,,BKN001,0.00,VWS V14.00,2013-05-16 17:56:00,
2013-05-16 12:01:00,64.2,31.3,29.80,South,170,6.0,15.0,29,0.00,,BKN001,0.00,VWS V14.00,2013-05-16 18:01:00,
2013-05-16 12:06:00,64.2,28.6,29.80,South,184,11.0,14.0,26,0.00,,BKN001,0.00,VWS V14.00,2013-05-16 18:06:00,
2013-05-16 12:11:00,64.5,27.9,29.79,SSE,150,8.0,15.0,25,0.00,,BKN001,0.00,VWS V14.00,2013-05-16 18:11:00,
2013-05-16 12:16:00,64.9,29.2,29.79,SSW,197,13.0,19.0,26,0.00,,BKN001,0.00,VWS V14.00,2013-05-16 18:16:00,
2013-05-16 12:21:00,64.9,28.3,29.79,SSE,165,12.0,19.0,25,0.00,,BKN001,0.00,VWS V14.00,2013-05-16 18:21:00,
2013-05-16 12:26:00,63.9,27.4,29.79,SE,136,12.0,19.0,25,0.00,,BKN001,0.00,VWS V14.00,2013-05-16 18:26:00,
2013-05-16 12:31:00,62.5,28.1,29.78,SE,139,9.0,19.0,27,0.00,,BKN001,0.00,VWS V14.00,2013-05-16 18:31:00,
2013-05-16 12:36:00,62.1,28.6,29.79,SSW,204,8.0,16.0,28,0.00,,BKN001,0.00,VWS V14.00,2013-05-16 18:36:00,
2013-05-16 12:41:00,63.4,27.0,29.78,South,170,15.0,16.0,25,0.00,,BKN001,0.00,VWS V14.00,2013-05-16 18:41:00,
2013-05-16 12:46:00,62.5,28.1,29.78,South,172,17.0,17.0,27,0.00,,BKN001,0.00,VWS V14.00,2013-05-16 18:46:00,
2013-05-16 12:51:00,62.4,24.1,29.78,SSW,210,9.0,17.0,23,0.00,,BKN001,0.00,VWS V14.00,2013-05-16 18:51:00,
2013-05-16 12:56:00,63.5,24.0,29.78,WSW,243,10.0,19.0,22,0.00,,BKN001,0.00,VWS V14.00,2013-05-16 18:56:00,
2013-05-16 13:01:00,64.3,30.5,29.78,SSE,167,16.0,21.0,28,0.00,,BKN001,0.00,VWS V14.00,2013-05-16 19:01:00,
2013-05-16 13:06:00,63.8,27.3,29.78,SSE,153,8.0,17.0,25,0.00,,BKN001,0.00,VWS V14.00,2013-05-16 19:06:00,
2013-05-16 13:11:00,63.0,26.6,29.78,SSW,204,10.0,17.0,25,0.00,,BKN001,0.00,VWS V14.00,2013-05-16 19:11:00,
2013-05-16 13:16:00,62.5,27.2,29.77,SSW,195,7.0,17.0,26,0.00,,BKN001,0.00,VWS V14.00,2013-05-16 19:16:00,
2013-05-16 13:21:00,62.5,24.2,29.77,West,274,4.0,18.0,23,0.00,,BKN001,0.00,VWS V14.00,2013-05-16 19:21:00,
2013-05-16 13:26:00,63.4,27.0,29.77,SSE,153,11.0,18.0,25,0.00,,BKN001,0.00,VWS V14.00,2013-05-16 19:26:00,
2013-05-16 13:31:00,64.2,27.7,29.77,South,172,10.0,18.0,25,0.00,,BKN001,0.00,VWS V14.00,2013-05-16 19:31:00,
2013-05-16 13:36:00,65.3,26.6,29.77,SSW,204,12.0,16.0,23,0.00,,BKN001,0.00,VWS V14.00,2013-05-16 19:36:00,
2013-05-16 13:41:00,64.2,24.6,29.76,SSW,204,12.0,19.0,22,0.00,,BKN001,0.00,VWS V14.00,2013-05-16 19:41:00,
2013-05-16 13:46:00,63.5,28.0,29.76,SSE,163,7.0,19.0,26,0.00,,BKN001,0.00,VWS V14.00,2013-05-16 19:46:00,
2013-05-16 13:51:00,64.4,25.8,29.77,SW,215,15.0,19.0,23,0.00,,BKN001,0.00,VWS V14.00,2013-05-16 19:51:00,
2013-05-16 13:56:00,63.4,27.9,29.76,SSW,212,13.0,19.0,26,0.00,,BKN001,0.00,VWS V14.00,2013-05-16 19:56:00,
2013-05-16 14:01:00,63.3,24.9,29.76,SSW,192,8.0,19.0,23,0.00,,BKN001,0.00,VWS V14.00,2013-05-16 20:01:00,
2013-05-16 14:06:00,63.8,25.3,29.76,SSE,165,8.0,13.0,23,0.00,,BKN001,0.00,VWS V14.00,2013-05-16 20:06:00,
2013-05-16 14:11:00,63.9,26.4,29.76,SSE,151,11.0,15.0,24,0.00,,BKN001,0.00,VWS V14.00,2013-05-16 20:11:00,
2013-05-16 14:16:00,64.0,27.5,29.76,South,181,9.0,15.0,25,0.00,,BKN001,0.00,VWS V14.00,2013-05-16 20:16:00,
2013-05-16 14:21:00,64.3,24.7,29.76,South,175,12.0,20.0,22,0.00,,BKN001,0.00,VWS V14.00,2013-05-16 20:21:00,
2013-05-16 14:26:00,64.2,23.5,29.76,SSE,149,7.0,20.0,21,0.00,,BKN001,0.00,VWS V14.00,2013-05-16 20:26:00,
2013-05-16 14:31:00,64.1,24.5,29.75,South,190,12.0,20.0,22,0.00,,BKN001,0.00,VWS V14.00,2013-05-16 20:31:00,
2013-05-16 14:36:00,65.1,28.4,29.75,SSE,164,9.0,17.0,25,0.00,,BKN001,0.00,VWS V14.00,2013-05-16 20:36:00,
2013-05-16 14:41:00,65.3,25.5,29.75,SSE,153,14.0,18.0,22,0.00,,BKN001,0.00,VWS V14.00,2013-05-16 20:41:00,
2013-05-16 14:46:00,64.5,23.7,29.75,South,173,8.0,21.0,21,0.00,,BKN001,0.00,VWS V14.00,2013-05-16 20:46:00,
2013-05-16 14:51:00,64.1,24.5,29.75,SSE,150,2.0,21.0,22,0.00,,BKN001,0.00,VWS V14.00,2013-05-16 20:51:00,
2013-05-16 14:56:00,65.6,26.8,29.74,South,184,12.0,21.0,23,0.00,,BKN001,0.00,VWS V14.00,2013-05-16 20:56:00,
2013-05-16 15:01:00,65.8,24.8,29.74,South,180,12.0,21.0,21,0.00,,BKN001,0.00,VWS V14.00,2013-05-16 21:01:00,
2013-05-16 15:06:00,65.3,25.5,29.74,South,183,5.0,15.0,22,0.00,,BKN001,0.00,VWS V14.00,2013-05-16 21:06:00,
2013-05-16 15:11:00,64.3,23.6,29.74,SSW,194,7.0,15.0,21,0.00,,BKN001,0.00,VWS V14.00,2013-05-16 21:11:00,
2013-05-16 15:16:00,63.9,25.4,29.73,SW,220,15.0,17.0,23,0.00,,BKN001,0.00,VWS V14.00,2013-05-16 21:16:00,
2013-05-16 15:21:00,63.9,25.4,29.73,SW,215,10.0,17.0,23,0.00,,BKN001,0.00,VWS V14.00,2013-05-16 21:21:00,
2013-05-16 15:26:00,64.7,25.0,29.73,SW,232,17.0,17.0,22,0.00,,BKN001,0.00,VWS V14.00,2013-05-16 21:26:00,
2013-05-16 15:31:00,65.2,25.4,29.73,SSW,201,15.0,19.0,22,0.00,,BKN001,0.00,VWS V14.00,2013-05-16 21:31:00,
2013-05-16 15:36:00,66.6,25.5,29.72,SW,215,17.0,22.0,21,0.00,,BKN001,0.00,VWS V14.00,2013-05-16 21:36:00,
2013-05-16 15:41:00,66.9,24.5,29.72,SW,231,13.0,22.0,20,0.00,,BKN001,0.00,VWS V14.00,2013-05-16 21:41:00,
2013-05-16 15:46:00,67.3,26.1,29.72,South,173,7.0,22.0,21,0.00,,BKN001,0.00,VWS V14.00,2013-05-16 21:46:00,
2013-05-16 15:51:00,67.2,24.8,29.72,SSW,212,14.0,22.0,20,0.00,,BKN001,0.00,VWS V14.00,2013-05-16 21:51:00,
2013-05-16 15:56:00,66.3,25.2,29.72,WSW,245,8.0,22.0,21,0.00,,BKN001,0.00,VWS V14.00,2013-05-16 21:56:00,
2013-05-16 16:01:00,66.0,26.1,29.72,South,190,8.0,22.0,22,0.00,,BKN001,0.00,VWS V14.00,2013-05-16 22:01:00,
2013-05-16 16:06:00,66.1,25.1,29.72,WSW,253,14.0,16.0,21,0.00,,BKN001,0.00,VWS V14.00,2013-05-16 22:06:00,
2013-05-16 16:11:00,66.5,24.2,29.71,SW,233,7.0,17.0,20,0.00,,BKN001,0.00,VWS V14.00,2013-05-16 22:11:00,
2013-05-16 16:16:00,66.0,23.8,29.71,WSW,240,6.0,17.0,20,0.00,,BKN001,0.00,VWS V14.00,2013-05-16 22:16:00,
2013-05-16 16:21:00,65.2,24.3,29.71,SSW,211,9.0,18.0,21,0.00,,BKN001,0.00,VWS V14.00,2013-05-16 22:21:00,
2013-05-16 16:26:00,64.5,24.8,29.71,SSW,212,10.0,18.0,22,0.00,,BKN001,0.00,VWS V14.00,2013-05-16 22:26:00,
2013-05-16 16:31:00,64.6,24.9,29.71,SSW,194,13.0,18.0,22,0.00,,BKN001,0.00,VWS V14.00,2013-05-16 22:31:00,
2013-05-16 16:36:00,66.3,26.4,29.71,SW,224,8.0,16.0,22,0.00,,BKN001,0.00,VWS V14.00,2013-05-16 22:36:00,
2013-05-16 16:41:00,66.3,26.4,29.71,SSW,201,11.0,16.0,22,0.00,,BKN001,0.00,VWS V14.00,2013-05-16 22:41:00,
2013-05-16 16:46:00,65.4,25.6,29.70,West,264,12.0,21.0,22,0.00,,BKN001,0.00,VWS V14.00,2013-05-16 22:46:00,
2013-05-16 16:51:00,64.6,24.9,29.71,South,179,10.0,21.0,22,0.00,,BKN001,0.00,VWS V14.00,2013-05-16 22:51:00,
2013-05-16 16:56:00,64.3,23.6,29.71,South,176,11.0,21.0,21,0.00,,BKN001,0.00,VWS V14.00,2013-05-16 22:56:00,
2013-05-16 17:01:00,65.0,25.3,29.71,SSW,210,9.0,21.0,22,0.00,,BKN001,0.00,VWS V14.00,2013-05-16 23:01:00,
2013-05-16 17:06:00,65.9,24.9,29.70,South,179,10.0,14.0,21,0.00,,BKN001,0.00,VWS V14.00,2013-05-16 23:06:00,
2013-05-16 17:11:00,66.2,25.1,29.70,SW,230,10.0,18.0,21,0.00,,BKN001,0.00,VWS V14.00,2013-05-16 23:11:00,
2013-05-16 17:15:00,66.6,25.5,29.70,West,259,14.0,18.0,21,0.00,,BKN001,0.00,VWS V14.00,2013-05-16 23:15:00,
2013-05-16 17:21:00,66.3,25.2,29.70,SW,225,12.0,18.0,21,0.00,,BKN001,0.00,VWS V14.00,2013-05-16 23:21:00,
2013-05-16 17:26:00,65.6,25.8,29.70,SSW,201,13.0,18.0,22,0.00,,BKN001,0.00,VWS V14.00,2013-05-16 23:26:00,
2013-05-16 17:30:00,65.6,24.6,29.70,South,184,7.0,18.0,21,0.00,,BKN001,0.00,VWS V14.00,2013-05-16 23:30:00,
2013-05-16 17:35:00,65.9,24.9,29.70,SSW,212,13.0,16.0,21,0.00,,BKN001,0.00,VWS V14.00,2013-05-16 23:35:00,
2013-05-16 17:40:00,66.0,23.8,29.70,SSW,201,9.0,17.0,20,0.00,,BKN001,0.00,VWS V14.00,2013-05-16 23:40:00,
2013-05-16 17:45:00,66.2,25.1,29.70,SW,235,9.0,17.0,21,0.00,,BKN001,0.00,VWS V14.00,2013-05-16 23:45:00,
2013-05-16 17:50:00,66.2,26.3,29.70,SW,220,10.0,17.0,22,0.00,,BKN001,0.00,VWS V14.00,2013-05-16 23:50:00,
2013-05-16 17:55:00,65.6,24.6,29.70,West,265,7.0,20.0,21,0.00,,BKN001,0.00,VWS V14.00,2013-05-16 23:55:00,
2013-05-16 18:00:00,65.5,24.6,29.70,SW,218,10.0,20.0,21,0.00,,BKN001,0.00,VWS V14.00,2013-05-17 00:00:00,
2013-05-16 18:05:00,65.3,23.2,29.70,West,269,5.0,15.0,20,0.00,,BKN001,0.00,VWS V14.00,2013-05-17 00:05:00,
2013-05-16 18:10:00,65.0,25.3,29.70,WSW,243,9.0,15.0,22,0.00,,BKN001,0.00,VWS V14.00,2013-05-17 00:10:00,
2013-05-16 18:15:00,65.4,25.6,29.69,WSW,245,7.0,15.0,22,0.00,,BKN001,0.00,VWS V14.00,2013-05-17 00:15:00,
2013-05-16 18:20:00,65.4,24.5,29.70,SW,231,10.0,15.0,21,0.00,,BKN001,0.00,VWS V14.00,2013-05-17 00:20:00,
2013-05-16 18:25:00,65.4,24.5,29.69,SSW,200,8.0,15.0,21,0.00,,BKN001,0.00,VWS V14.00,2013-05-17 00:25:00,
2013-05-16 18:30:00,65.6,24.6,29.69,SSW,194,5.0,15.0,21,0.00,,BKN001,0.00,VWS V14.00,2013-05-17 00:30:00,
2013-05-16 18:35:00,65.3,24.4,29.69,SW,222,8.0,9.0,21,0.00,,BKN001,0.00,VWS V14.00,2013-05-17 00:35:00,
2013-05-16 18:40:00,64.8,22.8,29.69,SSW,192,3.0,12.0,20,0.00,,BKN001,0.00,VWS V14.00,2013-05-17 00:40:00,
2013-05-16 18:45:00,64.7,25.0,29.69,SW,233,10.0,17.0,22,0.00,,BKN001,0.00,VWS V14.00,2013-05-17 00:45:00,
2013-05-16 18:50:00,64.5,23.7,29.69,SW,215,7.0,17.0,21,0.00,,BKN001,0.00,VWS V14.00,2013-05-17 00:50:00,
2013-05-16 18:55:00,64.3,23.6,29.69,SW,218,7.0,17.0,21,0.00,,BKN001,0.00,VWS V14.00,2013-05-17 00:55:00,
2013-05-16 19:00:00,63.4,23.9,29.69,West,273,6.0,17.0,22,0.00,,BKN001,0.00,VWS V14.00,2013-05-17 01:00:00,
2013-05-16 19:05:00,62.6,23.2,29.69,SW,214,12.0,12.0,22,0.00,,BKN001,0.00,VWS V14.00,2013-05-17 01:05:00,
2013-05-16 19:10:00,62.2,22.9,29.69,WSW,243,4.0,13.0,22,0.00,,BKN001,0.00,VWS V14.00,2013-05-17 01:10:00,
2013-05-16 19:15:00,61.8,22.6,29.69,WSW,243,11.0,14.0,22,0.00,,BKN001,0.00,VWS V14.00,2013-05-17 01:15:00,
2013-05-16 19:20:00,61.5,23.4,29.69,SW,235,6.0,14.0,23,0.00,,BKN001,0.00,VWS V14.00,2013-05-17 01:20:00,
2013-05-16 19:25:00,61.4,24.3,29.69,SSW,207,4.0,14.0,24,0.00,,BKN001,0.00,VWS V14.00,2013-05-17 01:25:00,
2013-05-16 19:30:00,60.2,25.2,29.69,SSW,207,5.0,14.0,26,0.00,,BKN001,0.00,VWS V14.00,2013-05-17 01:30:00,
2013-05-16 19:35:00,59.3,25.4,29.69,SSW,192,6.0,8.0,27,0.00,,BKN001,0.00,VWS V14.00,2013-05-17 01:35:00,
2013-05-16 19:40:00,59.0,25.1,29.70,South,179,6.0,8.0,27,0.00,,BKN001,0.00,VWS V14.00,2013-05-17 01:40:00,
2013-05-16 19:45:00,58.8,24.9,29.70,South,179,6.0,9.0,27,0.00,,BKN001,0.00,VWS V14.00,2013-05-17 01:45:00,
2013-05-16 19:50:00,58.4,23.7,29.70,SW,215,7.0,9.0,26,0.00,,BKN001,0.00,VWS V14.00,2013-05-17 01:50:00,
2013-05-16 19:55:00,58.4,22.7,29.70,SSE,167,6.0,9.0,25,0.00,,BKN001,0.00,VWS V14.00,2013-05-17 01:55:00,
2013-05-16 20:00:00,58.4,23.7,29.71,South,186,4.0,9.0,26,0.00,,BKN001,0.00,VWS V14.00,2013-05-17 02:00:00,
2013-05-16 20:05:00,58.0,23.3,29.71,South,173,6.0,8.0,26,0.00,,BKN001,0.00,VWS V14.00,2013-05-17 02:05:00,
2013-05-16 20:10:00,58.0,23.3,29.71,SSE,158,7.0,9.0,26,0.00,,BKN001,0.00,VWS V14.00,2013-05-17 02:10:00,
2013-05-16 20:15:00,58.3,21.7,29.71,SSE,160,7.0,10.0,24,0.00,,BKN001,0.00,VWS V14.00,2013-05-17 02:15:00,
2013-05-16 20:20:00,58.3,22.6,29.71,SSE,150,6.0,10.0,25,0.00,,BKN001,0.00,VWS V14.00,2013-05-17 02:20:00,
2013-05-16 20:25:00,58.1,22.5,29.71,South,179,5.0,10.0,25,0.00,,BKN001,0.00,VWS V14.00,2013-05-17 02:25:00,
2013-05-16 20:30:00,57.5,22.9,29.72,ESE,102,5.0,10.0,26,0.00,,BKN001,0.00,VWS V14.00,2013-05-17 02:30:00,
2013-05-16 20:35:00,56.9,22.4,29.72,ESE,105,4.0,7.0,26,0.00,,BKN001,0.00,VWS V14.00,2013-05-17 02:35:00,
2013-05-16 20:40:00,56.6,22.1,29.72,East,100,4.0,7.0,26,0.00,,BKN001,0.00,VWS V14.00,2013-05-17 02:40:00,
2013-05-16 20:45:00,56.2,23.5,29.72,SSE,158,2.0,7.0,28,0.00,,BKN001,0.00,VWS V14.00,2013-05-17 02:45:00,
2013-05-16 20:50:00,54.9,24.9,29.72,West,260,3.0,7.0,31,0.00,,BKN001,0.00,VWS V14.00,2013-05-17 02:50:00,
2013-05-16 20:55:00,53.6,25.9,29.73,WSW,243,1.0,7.0,34,0.00,,BKN001,0.00,VWS V14.00,2013-05-17 02:55:00,
2013-05-16 21:00:00,52.8,25.9,29.73,SW,232,1.0,7.0,35,0.00,,BKN001,0.00,VWS V14.00,2013-05-17 03:00:00,
2013-05-16 21:05:00,51.7,25.6,29.73,West,273,1.0,1.0,36,0.00,,BKN001,0.00,VWS V14.00,2013-05-17 03:05:00,
2013-05-16 21:10:00,50.9,25.6,29.73,SW,217,2.0,4.0,37,0.00,,BKN001,0.00,VWS V14.00,2013-05-17 03:10:00,
2013-05-16 21:15:00,50.3,25.7,29.73,SSW,192,3.0,4.0,38,0.00,,BKN001,0.00,VWS V14.00,2013-05-17 03:15:00,
2013-05-16 21:20:00,50.0,26.0,29.73,SSW,207,2.0,4.0,39,0.00,,BKN001,0.00,VWS V14.00,2013-05-17 03:20:00,
2013-05-16 21:25:00,49.4,26.7,29.74,SE,132,3.0,4.0,41,0.00,,BKN001,0.00,VWS V14.00,2013-05-17 03:25:00,
2013-05-16 21:30:00,48.7,27.2,29.74,SE,130,3.0,4.0,43,0.00,,BKN001,0.00,VWS V14.00,2013-05-17 03:30:00,
2013-05-16 21:35:00,47.7,26.9,29.74,SE,125,3.0,4.0,44,0.00,,BKN001,0.00,VWS V14.00,2013-05-17 03:35:00,
2013-05-16 21:40:00,47.3,27.0,29.75,ESE,123,4.0,4.0,45,0.00,,BKN001,0.00,VWS V14.00,2013-05-17 03:40:00,
2013-05-16 21:45:00,46.8,27.1,29.75,SE,129,1.0,5.0,46,0.00,,BKN001,0.00,VWS V14.00,2013-05-17 03:45:00,
2013-05-16 21:50:00,47.3,26.5,29.75,SSW,207,1.0,5.0,44,0.00,,BKN001,0.00,VWS V14.00,2013-05-17 03:50:00,
2013-05-16 21:55:00,47.2,27.5,29.76,ESE,120,3.0,5.0,46,0.00,,BKN001,0.00,VWS V14.00,2013-05-17 03:55:00,
2013-05-16 22:00:00,46.5,27.4,29.76,SSW,207,0.0,5.0,47,0.00,,BKN001,0.00,VWS V14.00,2013-05-17 04:00:00,
2013-05-16 22:01:00,46.4,27.3,29.76,SSW,207,1.0,5.0,47,0.00,,BKN001,0.00,VWS V14.00,2013-05-17 04:01:00,
2013-05-16 22:06:00,46.4,26.8,29.76,SW,224,3.0,3.0,46,0.00,,BKN001,0.00,VWS V14.00,2013-05-17 04:06:00,
2013-05-16 22:11:00,46.7,27.6,29.76,SE,136,2.0,4.0,47,0.00,,BKN001,0.00,VWS V14.00,2013-05-17 04:11:00,
2013-05-16 22:16:00,46.7,28.6,29.76,West,265,1.0,4.0,49,0.00,,BKN001,0.00,VWS V14.00,2013-05-17 04:16:00,
2013-05-16 22:21:00,46.2,28.6,29.77,SW,227,3.0,6.0,50,0.00,,BKN001,0.00,VWS V14.00,2013-05-17 04:21:00,
2013-05-16 22:26:00,45.8,27.7,29.77,SW,231,4.0,6.0,49,0.00,,BKN001,0.00,VWS V14.00,2013-05-17 04:26:00,
2013-05-16 22:31:00,45.3,27.8,29.77,SSE,150,1.0,6.0,50,0.00,,BKN001,0.00,VWS V14.00,2013-05-17 04:31:00,
2013-05-16 22:36:00,45.0,27.5,29.77,SSE,162,2.0,3.0,50,0.00,,BKN001,0.00,VWS V14.00,2013-05-17 04:36:00,
2013-05-16 22:41:00,44.7,27.2,29.77,SSE,147,3.0,3.0,50,0.00,,BKN001,0.00,VWS V14.00,2013-05-17 04:41:00,
2013-05-16 22:46:00,44.9,26.4,29.77,ESE,122,2.0,3.0,48,0.00,,BKN001,0.00,VWS V14.00,2013-05-17 04:46:00,
2013-05-16 22:51:00,44.5,27.0,29.77,West,272,1.0,3.0,50,0.00,,BKN001,0.00,VWS V14.00,2013-05-17 04:51:00,
2013-05-16 22:56:00,44.4,26.9,29.77,West,269,0.0,3.0,50,0.00,,BKN001,0.00,VWS V14.00,2013-05-17 04:56:00,
2013-05-16 23:01:00,44.0,27.0,29.77,SW,233,4.0,6.0,51,0.00,,BKN001,0.00,VWS V14.00,2013-05-17 05:01:00,
2013-05-16 23:06:00,43.9,27.4,29.77,SW,231,5.0,5.0,52,0.00,,BKN001,0.00,VWS V14.00,2013-05-17 05:06:00,
2013-05-16 23:11:00,43.3,27.3,29.77,SSW,203,2.0,6.0,53,0.00,,BKN001,0.00,VWS V14.00,2013-05-17 05:11:00,
2013-05-16 23:16:00,42.8,27.8,29.77,SSW,201,3.0,6.0,55,0.00,,BKN001,0.00,VWS V14.00,2013-05-17 05:16:00,
2013-05-16 23:21:00,42.2,27.2,29.78,East,98,2.0,6.0,55,0.00,,BKN001,0.00,VWS V14.00,2013-05-17 05:21:00,
2013-05-16 23:26:00,41.1,27.5,29.78,SE,128,2.0,6.0,58,0.00,,BKN001,0.00,VWS V14.00,2013-05-17 05:26:00,
2013-05-16 23:31:00,40.8,27.2,29.78,East,98,1.0,6.0,58,0.00,,BKN001,0.00,VWS V14.00,2013-05-17 05:31:00,
2013-05-16 23:36:00,41.4,27.3,29.78,East,84,1.0,4.0,57,0.00,,BKN001,0.00,VWS V14.00,2013-05-17 05:36:00,
2013-05-16 23:41:00,41.8,26.8,29.78,SSE,160,1.0,4.0,55,0.00,,BKN001,0.00,VWS V14.00,2013-05-17 05:41:00,
2013-05-16 23:46:00,41.7,27.2,29.78,ENE,64,0.0,4.0,56,0.00,,BKN001,0.00,VWS V14.00,2013-05-17 05:46:00,
2013-05-16 23:51:00,41.0,27.0,29.78,ENE,63,0.0,4.0,57,0.00,,BKN001,0.00,VWS V14.00,2013-05-17 05:51:00,
2013-05-16 23:56:00,40.9,26.9,29.78,ESE,110,4.0,5.0,57,0.00,,BKN001,0.00,VWS V14.00,2013-05-17 05:56:00,